International Virtual Aviation Organisation

Russian Federation and Kazakhstan MCD

 

Карточка аэропорта UATG

Внимание!
Информация на этой странице в стадии наполнения.
Если вы не увидели какой-то информации, или заметили неточность - пожалуйста сообщите нам!
Спасибо!
Команда RU-STAFF
Название аэропортаАтырау
Название аэропорта (англ.)Atyrau
Превышение-72 ft. (-21.9 m.)
Координаты47°7.332', 51°49.764'
Высота перехода1570
Эшелон переходаFL40
Коды ответчика3450-3457, 3560-3567
Зона ОрВДАктобе РПИ (UATT)
Данные METARUATG 271700Z 18003MPS 3700 BR BKN020 M03/M03 Q1032 R14/19//65 TEMPO 0600 FZFG VV002 RMK QFE776/1034
Проноз погоды (TAF)UATG 271100Z 2712/2812 32006MPS 3100 BR BKN011 OVC020CB TX02/2811Z TNM01/2803Z BECMG 2713/2715 VRB03MPS TEMPO 2713/2724 0300 FZDZ FZFG OVC001 FM280700 16009MPS 9999 BKN011 BKN030CB
NOTAMshow/hide NOTAM
AWOS   TABLE

Информация о ВПП

ВПП Длина ВПП (м.) Покрытие Курс ВПП Частота ILS
143000Асфальтобетон149109.9
323000Асфальтобетон329108.3

Диспетчерские позиции

Позывной Наименование органа УВД Частота
UATG_APPАтырау Подход123.7
UATG_TWRАтырау Вышка118.1



Спутниковое изображение